Location: Paderno d�Adda
(45.6667°N, 9.4333°E)
Time: 13:19:24
(UTC+00:00)

NOSS 2-2 (D) - Pass Details

Date: 19 September 2020
Orbit: 469 x 1739 km, 63.3° (Epoch: 23 October)

Event Time Altitude Azimuth Distance (km) Brightness Sun altitude
Rises 18:34:47 0° 215° (SW) 2,513 7.0 -12.9°
Reaches altitude 10° 18:36:51 10° 215° (SW) 1,623 6.0 -13.2°
Maximum altitude 18:40:20 84° 127° (SE) 492 2.9 -13.8°
Drops below altitude 10° 18:44:11 10° 40° (NE) 1,794 5.7 -14.4°
Sets 18:46:34 0° 39° (NE) 2,811 6.7 -14.8°
